When you browse on this site, cookies collect data to enhance your experience and personalize the content and advertising you see.
Visit our Privacy Policy to learn more. By continuing to use the site, you agree to this use of cookies and data.
  • Em Portugal
  • Lista de países
  • Para 7 dias
  • Temperatura da água
  • Mapa do tempo
  • Widgets de tempo
  • user-avatar
    Iniciar Sessão

    Previsão horária em Sartykov

    Hoje, 31 Maio, Domingo

    Tempo Temperatura Precipitação Vento Pressão Humidade
    00:00 +12°C° 0.5 mm 3 m/s 730 mmHg 82%
    01:00 +12°C° 0.6 mm 4 m/s 730 mmHg 83%
    02:00 +12°C° 0.6 mm 5 m/s 730 mmHg 84%
    03:00 +12°C° 0.6 mm 5 m/s 730 mmHg 86%
    04:00 +12°C° 0.3 mm 5 m/s 731 mmHg 81%
    05:00 +12°C° 0.3 mm 5 m/s 731 mmHg 76%
    06:00 +12°C° 0.3 mm 5 m/s 731 mmHg 72%
    07:00 +13°C° 0.1 mm 6 m/s 732 mmHg 67%
    08:00 +14°C° 0.1 mm 7 m/s 733 mmHg 62%
    09:00 +15°C° 0.1 mm 8 m/s 733 mmHg 57%
    10:00 +16°C° 0 mm 8 m/s 733 mmHg 56%
    11:00 +16°C° 0 mm 9 m/s 732 mmHg 54%
    12:00 +17°C° 0 mm 9 m/s 732 mmHg 53%
    13:00 +17°C° 0.1 mm 9 m/s 732 mmHg 55%
    14:00 +16°C° 0.1 mm 9 m/s 732 mmHg 58%
    15:00 +16°C° 0.1 mm 9 m/s 732 mmHg 61%
    16:00 +16°C° 0 mm 9 m/s 731 mmHg 63%
    17:00 +15°C° 0 mm 9 m/s 731 mmHg 66%
    18:00 +15°C° 0 mm 9 m/s 731 mmHg 68%
    19:00 +14°C° 0.1 mm 7 m/s 731 mmHg 70%
    20:00 +14°C° 0.1 mm 6 m/s 731 mmHg 71%
    21:00 +14°C° 0.1 mm 4 m/s 731 mmHg 73%
    22:00 +13°C° 0.2 mm 4 m/s 731 mmHg 76%
    23:00 +13°C° 0.2 mm 3 m/s 731 mmHg 79%

    Amanhã, 1 Junho, Segunda-feira

    Tempo Temperatura Precipitação Vento Pressão Humidade
    00:00 +13°C° 0.2 mm 3 m/s 732 mmHg 82%
    01:00 +12°C° 0.6 mm 3 m/s 732 mmHg 81%
    02:00 +11°C° 0.6 mm 3 m/s 732 mmHg 81%
    03:00 +11°C° 0.6 mm 4 m/s 732 mmHg 80%
    04:00 +10°C° 0.8 mm 3 m/s 732 mmHg 83%
    05:00 +10°C° 0.8 mm 2 m/s 732 mmHg 85%
    06:00 +10°C° 0.8 mm 2 m/s 732 mmHg 87%
    07:00 +9°C° 2.1 mm 2 m/s 732 mmHg 88%
    08:00 +9°C° 2.1 mm 3 m/s 732 mmHg 90%
    09:00 +9°C° 2.1 mm 3 m/s 732 mmHg 92%
    10:00 +9°C° 1.1 mm 3 m/s 732 mmHg 92%
    11:00 +9°C° 1.1 mm 3 m/s 731 mmHg 91%
    12:00 +9°C° 1.1 mm 3 m/s 731 mmHg 91%
    13:00 +9°C° 0.2 mm 2 m/s 731 mmHg 90%
    14:00 +9°C° 0.2 mm 2 m/s 731 mmHg 89%
    15:00 +11°C° 0.2 mm 1 m/s 731 mmHg 88%
    16:00 +11°C° 0 mm 1 m/s 731 mmHg 87%
    17:00 +10°C° 0 mm 2 m/s 732 mmHg 87%
    18:00 +10°C° 0 mm 2 m/s 732 mmHg 86%
    19:00 +10°C° 0 mm 2 m/s 732 mmHg 89%
    20:00 +9°C° 0 mm 2 m/s 732 mmHg 91%
    21:00 +9°C° 0 mm 1 m/s 733 mmHg 94%
    22:00 +9°C° 0 mm 1 m/s 733 mmHg 94%
    23:00 +9°C° 0 mm 1 m/s 733 mmHg 94%

    Depois de amanhã, 2 Junho, Terça-feira

    Tempo Temperatura Precipitação Vento Pressão Humidade
    00:00 +7°C° 0 mm 0 m/s 733 mmHg 93%
    01:00 +8°C° 0 mm 1 m/s 733 mmHg 93%
    02:00 +8°C° 0 mm 1 m/s 732 mmHg 93%
    03:00 +8°C° 0 mm 1 m/s 732 mmHg 94%
    04:00 +9°C° 0 mm 1 m/s 732 mmHg 91%
    05:00 +9°C° 0 mm 1 m/s 731 mmHg 89%
    06:00 +10°C° 0 mm 1 m/s 731 mmHg 86%
    07:00 +9°C° 0.1 mm 2 m/s 730 mmHg 87%
    08:00 +9°C° 0.1 mm 2 m/s 730 mmHg 87%
    09:00 +9°C° 0.1 mm 2 m/s 730 mmHg 88%
    10:00 +10°C° 0.6 mm 2 m/s 729 mmHg 87%
    11:00 +10°C° 0.6 mm 2 m/s 729 mmHg 86%
    12:00 +12°C° 0.6 mm 2 m/s 729 mmHg 86%
    13:00 +13°C° 0.1 mm 2 m/s 729 mmHg 84%
    14:00 +15°C° 0.1 mm 2 m/s 729 mmHg 81%
    15:00 +16°C° 0.1 mm 2 m/s 729 mmHg 79%
    16:00 +17°C° 0.1 mm 2 m/s 729 mmHg 78%
    17:00 +18°C° 0.1 mm 2 m/s 729 mmHg 78%
    18:00 +20°C° 0.1 mm 1 m/s 730 mmHg 77%
    19:00 +18°C° 0.5 mm 2 m/s 730 mmHg 80%
    20:00 +16°C° 0.5 mm 2 m/s 730 mmHg 84%
    21:00 +14°C° 0.5 mm 3 m/s 730 mmHg 87%
    22:00 +13°C° 0.3 mm 3 m/s 730 mmHg 87%
    23:00 +13°C° 0.3 mm 3 m/s 731 mmHg 88%

    3 Junho, Quarta-feira

    Tempo Temperatura Precipitação Vento Pressão Humidade
    00:00 +13°C° 0.3 mm 3 m/s 731 mmHg 88%
    01:00 +12°C° 0.2 mm 3 m/s 732 mmHg 88%
    02:00 +12°C° 0.2 mm 4 m/s 732 mmHg 88%
    03:00 +12°C° 0.2 mm 4 m/s 732 mmHg 87%
    04:00 +13°C° 0 mm 4 m/s 732 mmHg 85%
    05:00 +13°C° 0 mm 4 m/s 733 mmHg 82%
    06:00 +14°C° 0 mm 4 m/s 733 mmHg 79%
    07:00 +15°C° 0.1 mm 4 m/s 733 mmHg 73%
    08:00 +16°C° 0.1 mm 3 m/s 733 mmHg 68%
    09:00 +17°C° 0.1 mm 3 m/s 733 mmHg 62%
    10:00 +18°C° 0 mm 3 m/s 733 mmHg 60%
    11:00 +19°C° 0 mm 2 m/s 733 mmHg 57%
    12:00 +19°C° 0 mm 2 m/s 733 mmHg 54%
    13:00 +20°C° 0.1 mm 2 m/s 733 mmHg 53%
    14:00 +20°C° 0.1 mm 2 m/s 733 mmHg 52%
    15:00 +20°C° 0.1 mm 2 m/s 733 mmHg 51%
    16:00 +20°C° 0.1 mm 2 m/s 733 mmHg 55%
    17:00 +20°C° 0.1 mm 2 m/s 733 mmHg 58%
    18:00 +19°C° 0.1 mm 2 m/s 733 mmHg 61%
    19:00 +18°C° 0 mm 2 m/s 733 mmHg 67%
    20:00 +16°C° 0 mm 1 m/s 733 mmHg 72%
    21:00 +15°C° 0 mm 1 m/s 733 mmHg 77%
    22:00 +14°C° 0 mm 1 m/s 732 mmHg 80%
    23:00 +14°C° 0 mm 1 m/s 732 mmHg 83%

    4 Junho, Quinta-feira

    Tempo Temperatura Precipitação Vento Pressão Humidade
    00:00 +13°C° 0 mm 1 m/s 731 mmHg 86%
    01:00 +13°C° 0 mm 1 m/s 731 mmHg 86%
    02:00 +13°C° 0 mm 1 m/s 730 mmHg 86%
    03:00 +12°C° 0 mm 1 m/s 730 mmHg 86%
    04:00 +13°C° 0.1 mm 2 m/s 729 mmHg 85%
    05:00 +13°C° 0.1 mm 3 m/s 729 mmHg 84%
    06:00 +13°C° 0.1 mm 3 m/s 728 mmHg 83%
    07:00 +14°C° 0.4 mm 4 m/s 728 mmHg 82%
    08:00 +14°C° 0.4 mm 5 m/s 727 mmHg 82%
    09:00 +15°C° 0.4 mm 5 m/s 727 mmHg 81%
    10:00 +15°C° 0.7 mm 6 m/s 727 mmHg 81%
    11:00 +16°C° 0.7 mm 6 m/s 727 mmHg 81%
    12:00 +16°C° 0.7 mm 7 m/s 727 mmHg 81%
    13:00 +17°C° 0.1 mm 7 m/s 727 mmHg 77%
    14:00 +17°C° 0.1 mm 7 m/s 727 mmHg 73%
    15:00 +18°C° 0.1 mm 7 m/s 727 mmHg 70%
    16:00 +18°C° 0.3 mm 7 m/s 727 mmHg 71%
    17:00 +18°C° 0.3 mm 7 m/s 727 mmHg 72%
    18:00 +19°C° 0.3 mm 6 m/s 728 mmHg 73%
    19:00 +16°C° 0.2 mm 5 m/s 728 mmHg 74%
    20:00 +15°C° 0.2 mm 4 m/s 728 mmHg 74%
    21:00 +14°C° 0.2 mm 3 m/s 728 mmHg 75%
    22:00 +13°C° 0 mm 3 m/s 729 mmHg 76%
    23:00 +13°C° 0 mm 2 m/s 729 mmHg 77%

    5 Junho, Sexta-feira

    Tempo Temperatura Precipitação Vento Pressão Humidade
    00:00 +12°C° 0 mm 2 m/s 730 mmHg 79%
    01:00 +10°C° 0 mm 2 m/s 730 mmHg 79%
    02:00 +10°C° 0 mm 1 m/s 730 mmHg 79%
    03:00 +10°C° 0 mm 1 m/s 730 mmHg 79%
    04:00 +11°C° 0 mm 1 m/s 731 mmHg 76%
    05:00 +11°C° 0 mm 1 m/s 731 mmHg 74%
    06:00 +12°C° 0 mm 1 m/s 731 mmHg 72%
    07:00 +13°C° 0.1 mm 1 m/s 731 mmHg 67%
    08:00 +14°C° 0.1 mm 1 m/s 732 mmHg 61%
    09:00 +15°C° 0.1 mm 2 m/s 732 mmHg 56%
    10:00 +15°C° 0.1 mm 2 m/s 732 mmHg 52%
    11:00 +16°C° 0.1 mm 2 m/s 731 mmHg 49%
    12:00 +18°C° 0.1 mm 1 m/s 731 mmHg 46%
    13:00 +17°C° 0 mm 2 m/s 731 mmHg 45%
    14:00 +18°C° 0 mm 2 m/s 731 mmHg 44%
    15:00 +18°C° 0 mm 2 m/s 731 mmHg 44%
    16:00 +17°C° 0.1 mm 2 m/s 731 mmHg 49%
    17:00 +17°C° 0.1 mm 3 m/s 731 mmHg 55%
    18:00 +16°C° 0.1 mm 3 m/s 731 mmHg 60%
    19:00 +15°C° 0.1 mm 2 m/s 731 mmHg 65%
    20:00 +13°C° 0.1 mm 1 m/s 731 mmHg 70%
    21:00 +12°C° 0.1 mm 1 m/s 731 mmHg 76%
    22:00 +12°C° 0.1 mm 1 m/s 731 mmHg 76%
    23:00 +11°C° 0.1 mm 1 m/s 731 mmHg 77%
    Mostrar mais